START_TIME,STEP,MOV.,A46,t_acc.,A13,t_acc.,M47,t_acc.,A17,t_acc.,A28,t_acc.,M38,t_acc.
1979-07-11 21:00:25.920 ,0,0,,0,768.,4.8,136.,4.8,,0,0.,4.8,248.,4.8
1979-07-11 21:00:30.720 ,0,0,,0,848.,4.8,140.,4.8,,0,0.,4.8,264.,4.8
1979-07-11 21:00:35.520 ,0,0,,0,672.,4.8,100.,4.8,,0,0.,4.8,216.,4.8
1979-07-11 21:00:40.320 ,0,0,,0,0.,4.8,0.,4.8,,0,0.,4.8,216.,4.8
1979-07-11 21:00:45.120 ,0,0,,0,0.,4.8,0.,4.8,,0,0.,4.8,256.,4.8
1979-07-11 21:00:49.920 ,0,0,,0,0.,4.8,0.,4.8,,0,0.,4.8,240.,4.8
1979-07-11 21:00:54.720 ,0,0,,0,0.,4.8,0.,4.8,,0,0.,4.8,256.,4.8
1979-07-11 21:00:59.520 ,0,0,,0,106.,4.8,20.,4.8,,0,0.,4.8,236.,4.8
1979-07-11 21:01:04.320 ,0,0,,0,736.,4.8,114.,4.8,,0,0.,4.8,228.,4.8
1979-07-11 21:01:09.120 ,0,0,,0,800.,4.8,148.,4.8,,0,0.,4.8,256.,4.8
1979-07-11 21:01:13.920 ,0,0,,0,720.,4.8,120.,4.8,,0,0.,4.8,232.,4.8
1979-07-11 21:01:18.720 ,0,0,,0,768.,4.8,140.,4.8,,0,0.,4.8,256.,4.8
1979-07-11 21:01:23.520 ,0,0,,0,592.,4.8,104.,4.8,,0,0.,4.8,264.,4.8
1979-07-11 21:01:28.320 ,0,0,,0,0.,4.8,0.,4.8,,0,0.,4.8,252.,4.8
1979-07-11 21:01:33.120 ,0,0,,0,0.,4.8,0.,4.8,,0,0.,4.8,232.,4.8
1979-07-11 21:01:37.920 ,1,0,,0,0.,4.8,0.,4.8,,0,0.,4.8,244.,4.8
1979-07-11 21:01:42.720 ,1,0,,0,0.,4.8,0.,4.8,,0,0.,4.8,256.,4.8
1979-07-11 21:01:47.520 ,1,0,,0,132.,4.8,25.,4.8,,0,0.,4.8,244.,4.8
1979-07-11 21:01:52.320 ,1,0,,0,784.,4.8,144.,4.8,,0,0.,4.8,280.,4.8
1979-07-11 21:01:57.120 ,1,0,,0,784.,4.8,124.,4.8,,0,0.,4.8,288.,4.8
1979-07-11 21:02:01.920 ,1,0,,0,768.,4.8,116.,4.8,,0,0.,4.8,256.,4.8
1979-07-11 21:02:06.720 ,1,0,,0,752.,4.8,136.,4.8,,0,0.,4.8,272.,4.8
1979-07-11 21:02:11.520 ,1,0,,0,672.,4.8,104.,4.8,,0,0.,4.8,304.,4.8
1979-07-11 21:02:16.320 ,1,0,,0,0.,4.8,0.,4.8,,0,0.,4.8,288.,4.8
1979-07-11 21:02:21.120 ,1,0,,0,0.,4.8,0.,4.8,,0,0.,4.8,288.,4.8
1979-07-11 21:02:25.920 ,2,0,,0,0.,4.8,0.,4.8,,0,0.,4.8,264.,4.8
1979-07-11 21:02:30.720 ,2,0,,0,0.,4.8,0.,4.8,,0,0.,4.8,296.,4.8
1979-07-11 21:02:35.520 ,2,0,,0,172.,4.8,29.,4.8,,0,0.,4.8,368.,4.8
1979-07-11 21:02:40.320 ,2,0,,0,1056.,4.8,172.,4.8,,0,0.,4.8,376.,4.8
1979-07-11 21:02:45.120 ,2,0,,0,1056.,4.8,208.,4.8,,0,0.,4.8,336.,4.8
1979-07-11 21:02:49.920 ,2,0,,0,1056.,4.8,192.,4.8,,0,0.,4.8,336.,4.8
1979-07-11 21:02:54.720 ,2,0,,0,1088.,4.8,204.,4.8,,0,0.,4.8,368.,4.8
1979-07-11 21:02:59.520 ,2,0,,0,880.,4.8,144.,4.8,,0,0.,4.8,360.,4.8
1979-07-11 21:03:04.320 ,2,0,,0,0.,4.8,0.,4.8,,0,0.,4.8,368.,4.8
1979-07-11 21:03:09.120 ,2,0,,0,0.,4.8,0.,4.8,,0,0.,4.8,368.,4.8
1979-07-11 21:03:13.920 ,3,0,,0,0.,4.8,0.,4.8,,0,0.,4.8,352.,4.8
1979-07-11 21:03:18.720 ,3,0,,0,0.,4.8,0.,4.8,,0,0.,4.8,400.,4.8
1979-07-11 21:03:23.520 ,3,0,,0,244.,4.8,44.,4.8,,0,0.,4.8,488.,4.8
1979-07-11 21:03:28.320 ,3,0,,0,1280.,4.8,196.,4.8,,0,0.,4.8,472.,4.8
1979-07-11 21:03:33.120 ,3,0,,0,1312.,4.8,200.,4.8,,0,0.,4.8,496.,4.8
1979-07-11 21:03:37.920 ,3,0,,0,1344.,4.8,224.,4.8,,0,0.,4.8,480.,4.8
1979-07-11 21:03:42.720 ,3,0,,0,1312.,4.8,232.,4.8,,0,0.,4.8,496.,4.8
1979-07-11 21:03:47.520 ,3,0,,0,1088.,4.8,160.,4.8,,0,0.,4.8,488.,4.8
1979-07-11 21:03:52.320 ,3,0,,0,0.,4.8,0.,4.8,,0,0.,4.8,464.,4.8
1979-07-11 21:03:57.120 ,3,0,,0,0.,4.8,0.,4.8,,0,0.,4.8,512.,4.8
1979-07-11 21:04:01.920 ,4,0,,0,0.,4.8,0.,4.8,,0,0.,4.8,448.,4.8
1979-07-11 21:04:06.720 ,4,0,,0,0.,4.8,0.,4.8,,0,0.,4.8,544.,4.8
1979-07-11 21:04:11.520 ,4,0,,0,252.,4.8,39.,4.8,,0,0.,4.8,560.,4.8
1979-07-11 21:04:16.320 ,4,0,,0,1472.,4.8,252.,4.8,,0,0.,4.8,576.,4.8
1979-07-11 21:04:21.120 ,4,0,,0,1472.,4.8,256.,4.8,,0,0.,4.8,592.,4.8
1979-07-11 21:04:25.920 ,4,0,,0,1440.,4.8,248.,4.8,,0,0.,4.8,560.,4.8
1979-07-11 21:04:30.720 ,4,0,,0,1376.,4.8,228.,4.8,,0,0.,4.8,544.,4.8
1979-07-11 21:04:35.520 ,4,0,,0,1216.,4.8,216.,4.8,,0,0.,4.8,560.,4.8
1979-07-11 21:04:40.320 ,4,0,,0,0.,4.8,0.,4.8,,0,0.,4.8,576.,4.8
1979-07-11 21:04:45.120 ,4,0,,0,0.,4.8,0.,4.8,,0,0.,4.8,576.,4.8
1979-07-11 21:04:49.920 ,5,0,,0,0.,4.8,0.,4.8,,0,0.,4.8,544.,4.8
1979-07-11 21:04:54.720 ,5,0,,0,0.,4.8,0.,4.8,,0,0.,4.8,576.,4.8
1979-07-11 21:04:59.520 ,5,0,,0,248.,4.8,55.,4.8,,0,0.,4.8,560.,4.8
1979-07-11 21:05:04.320 ,5,0,,0,1568.,4.8,256.,4.8,,0,0.,4.8,592.,4.8
1979-07-11 21:05:09.120 ,5,0,,0,1664.,4.8,288.,4.8,,0,0.,4.8,576.,4.8
1979-07-11 21:05:13.920 ,5,0,,0,1632.,4.8,288.,4.8,,0,0.,4.8,576.,4.8
1979-07-11 21:05:18.720 ,5,0,,0,1632.,4.8,272.,4.8,,0,0.,4.8,576.,4.8
1979-07-11 21:05:23.520 ,5,0,,0,1344.,4.8,256.,4.8,,0,0.,4.8,592.,4.8
1979-07-11 21:05:28.320 ,5,0,,0,0.,4.8,0.,4.8,,0,0.,4.8,576.,4.8
1979-07-11 21:05:33.120 ,5,0,,0,0.,4.8,0.,4.8,,0,0.,4.8,560.,4.8
1979-07-11 21:05:37.920 ,6,0,,0,0.,4.8,0.,4.8,,0,0.,4.8,576.,4.8
1979-07-11 21:05:42.720 ,6,0,,0,0.,4.8,0.,4.8,,0,0.,4.8,528.,4.8
1979-07-11 21:05:47.520 ,6,0,,0,244.,4.8,36.,4.8,,0,0.,4.8,448.,4.8
1979-07-11 21:05:52.320 ,6,0,,0,1216.,4.8,212.,4.8,,0,0.,4.8,448.,4.8
1979-07-11 21:05:57.120 ,6,0,,0,1248.,4.8,236.,4.8,,0,0.,4.8,408.,4.8
1979-07-11 21:06:01.920 ,6,0,,0,1280.,4.8,220.,4.8,,0,0.,4.8,448.,4.8
1979-07-11 21:06:06.720 ,6,0,,0,1216.,4.8,208.,4.8,,0,0.,4.8,472.,4.8
1979-07-11 21:06:11.520 ,6,0,,0,1152.,4.8,212.,4.8,,0,0.,4.8,456.,4.8
1979-07-11 21:06:16.320 ,6,0,,0,0.,4.8,0.,4.8,,0,0.,4.8,448.,4.8
1979-07-11 21:06:21.120 ,6,0,,0,0.,4.8,0.,4.8,,0,0.,4.8,472.,4.8
1979-07-11 21:06:25.920 ,7,0,,0,0.,4.8,0.,4.8,,0,0.,4.8,440.,4.8
1979-07-11 21:06:30.720 ,7,0,,0,0.,4.8,0.,4.8,,0,0.,4.8,296.,4.8
1979-07-11 21:06:35.520 ,7,0,,0,0.,4.8,0.,4.8,,0,0.,4.8,0.,4.8
1979-07-11 21:06:40.320 ,7,0,,0,6.,4.8,0.,4.8,,0,0.,4.8,0.,4.8
1979-07-11 21:06:45.120 ,7,0,,0,7.,4.8,0.,4.8,,0,0.,4.8,0.,4.8
1979-07-11 21:06:49.920 ,7,0,,0,12.,4.8,0.,4.8,,0,0.,4.8,0.,4.8
1979-07-11 21:06:54.720 ,7,0,,0,11.,4.8,0.,4.8,,0,0.,4.8,0.,4.8
1979-07-11 21:06:59.520 ,7,0,,0,7.,4.8,1.,4.8,,0,0.,4.8,0.,4.8
1979-07-11 21:07:04.320 ,7,0,,0,0.,4.8,0.,4.8,,0,0.,4.8,0.,4.8
1979-07-11 21:07:09.120 ,7,0,,0,0.,4.8,0.,4.8,,0,0.,4.8,0.,4.8
1979-07-11 21:07:13.920 ,7,0,,0,0.,4.8,0.,4.8,,0,0.,4.8,0.,4.8
1979-07-11 21:07:18.720 ,7,0,,0,0.,4.8,0.,4.8,,0,0.,4.8,0.,4.8
1979-07-11 21:07:23.520 ,7,0,,0,6.,4.8,0.,4.8,,0,0.,4.8,0.,4.8
1979-07-11 21:07:28.320 ,7,0,,0,11.,4.8,0.,4.8,,0,0.,4.8,0.,4.8
1979-07-11 21:07:33.120 ,7,0,,0,7.,4.8,0.,4.8,,0,0.,4.8,0.,4.8
1979-07-11 21:07:37.920 ,7,0,,0,13.,4.8,0.,4.8,,0,0.,4.8,0.,4.8
1979-07-11 21:07:42.720 ,7,0,,0,13.,4.8,0.,4.8,,0,0.,4.8,0.,4.8
1979-07-11 21:07:47.520 ,7,0,,0,6.,4.8,0.,4.8,,0,0.,4.8,0.,4.8
1979-07-11 21:07:52.320 ,7,0,,0,0.,4.8,0.,4.8,,0,0.,4.8,0.,4.8
1979-07-11 21:07:57.120 ,7,0,,0,0.,4.8,0.,4.8,,0,0.,4.8,0.,4.8
1979-07-11 21:08:01.920 ,6,0,,0,0.,4.8,0.,4.8,,0,0.,4.8,0.,4.8
1979-07-11 21:08:06.720 ,6,0,,0,0.,4.8,0.,4.8,,0,0.,4.8,152.,4.8
1979-07-11 21:08:11.520 ,6,0,,0,216.,4.8,31.,4.8,,0,0.,4.8,472.,4.8
1979-07-11 21:08:16.320 ,6,0,,0,1312.,4.8,216.,4.8,,0,0.,4.8,456.,4.8
1979-07-11 21:08:21.120 ,6,0,,0,1280.,4.8,220.,4.8,,0,0.,4.8,456.,4.8
1979-07-11 21:08:25.920 ,6,0,,0,1376.,4.8,256.,4.8,,0,0.,4.8,440.,4.8
1979-07-11 21:08:30.720 ,6,0,,0,1376.,4.8,264.,4.8,,0,0.,4.8,480.,4.8
1979-07-11 21:08:35.520 ,6,0,,0,1120.,4.8,192.,4.8,,0,0.,4.8,464.,4.8
1979-07-11 21:08:40.320 ,6,0,,0,0.,4.8,0.,4.8,,0,0.,4.8,496.,4.8
1979-07-11 21:08:45.120 ,6,0,,0,0.,4.8,0.,4.8,,0,0.,4.8,472.,4.8
1979-07-11 21:08:49.920 ,5,0,,0,0.,4.8,0.,4.8,,0,0.,4.8,480.,4.8
1979-07-11 21:08:54.720 ,5,0,,0,0.,4.8,0.,4.8,,0,0.,4.8,528.,4.8
1979-07-11 21:08:59.520 ,5,0,,0,256.,4.8,40.,4.8,,0,0.,4.8,576.,4.8
1979-07-11 21:09:04.320 ,5,0,,0,1568.,4.8,272.,4.8,,0,0.,4.8,576.,4.8
1979-07-11 21:09:09.120 ,5,0,,0,1600.,4.8,296.,4.8,,0,0.,4.8,544.,4.8
1979-07-11 21:09:13.920 ,5,0,,0,1600.,4.8,272.,4.8,,0,0.,4.8,576.,4.8
1979-07-11 21:09:18.720 ,5,0,,0,1600.,4.8,256.,4.8,,0,0.,4.8,560.,4.8
1979-07-11 21:09:23.520 ,5,0,,0,1280.,4.8,228.,4.8,,0,0.,4.8,544.,4.8
1979-07-11 21:09:28.320 ,5,0,,0,0.,4.8,0.,4.8,,0,0.,4.8,544.,4.8
1979-07-11 21:09:33.120 ,5,0,,0,0.,4.8,0.,4.8,,0,0.,4.8,544.,4.8
1979-07-11 21:09:37.920 ,4,0,,0,0.,4.8,0.,4.8,,0,0.,4.8,544.,4.8
1979-07-11 21:09:42.720 ,4,0,,0,0.,4.8,0.,4.8,,0,0.,4.8,544.,4.8
1979-07-11 21:09:47.520 ,4,0,,0,256.,4.8,57.,4.8,,0,0.,4.8,544.,4.8
1979-07-11 21:09:52.320 ,4,0,,0,1728.,4.8,320.,4.8,,0,0.,4.8,624.,4.8
1979-07-11 21:09:57.120 ,4,0,,0,1632.,4.8,320.,4.8,,0,0.,4.8,560.,4.8
1979-07-11 21:10:01.920 ,4,0,,0,1568.,4.8,280.,4.8,,0,0.,4.8,544.,4.8
1979-07-11 21:10:06.720 ,4,0,,0,1632.,4.8,328.,4.8,,0,0.,4.8,544.,4.8
1979-07-11 21:10:11.520 ,4,0,,0,1376.,4.8,264.,4.8,,0,0.,4.8,544.,4.8
1979-07-11 21:10:16.320 ,4,0,,0,0.,4.8,0.,4.8,,0,0.,4.8,528.,4.8
1979-07-11 21:10:21.120 ,4,0,,0,0.,4.8,0.,4.8,,0,0.,4.8,544.,4.8
1979-07-11 21:10:25.920 ,3,0,,0,0.,4.8,0.,4.8,,0,0.,4.8,512.,4.8
1979-07-11 21:10:30.720 ,3,0,,0,0.,4.8,0.,4.8,,0,0.,4.8,528.,4.8
1979-07-11 21:10:35.520 ,3,0,,0,240.,4.8,49.,4.8,,0,0.,4.8,456.,4.8
1979-07-11 21:10:40.320 ,3,0,,0,1344.,4.8,228.,4.8,,0,0.,4.8,472.,4.8
1979-07-11 21:10:45.120 ,3,0,,0,1376.,4.8,228.,4.8,,0,0.,4.8,456.,4.8
1979-07-11 21:10:49.920 ,3,0,,0,1344.,4.8,236.,4.8,,0,0.,4.8,440.,4.8
1979-07-11 21:10:54.720 ,3,0,,0,1312.,4.8,244.,4.8,,0,0.,4.8,448.,4.8
1979-07-11 21:10:59.520 ,3,0,,0,1024.,4.8,180.,4.8,,0,0.,4.8,472.,4.8
1979-07-11 21:11:04.320 ,3,0,,0,0.,4.8,0.,4.8,,0,0.,4.8,456.,4.8
1979-07-11 21:11:09.120 ,3,0,,0,0.,4.8,0.,4.8,,0,0.,4.8,480.,4.8
1979-07-11 21:11:13.920 ,2,0,,0,0.,4.8,0.,4.8,,0,0.,4.8,456.,4.8
1979-07-11 21:11:18.720 ,2,0,,0,0.,4.8,0.,4.8,,0,0.,4.8,408.,4.8
1979-07-11 21:11:23.520 ,2,0,,0,152.,4.8,28.,4.8,,0,0.,4.8,336.,4.8
1979-07-11 21:11:28.320 ,2,0,,0,1024.,4.8,188.,4.8,,0,0.,4.8,336.,4.8
1979-07-11 21:11:33.120 ,2,0,,0,1024.,4.8,164.,4.8,,0,0.,4.8,384.,4.8
1979-07-11 21:11:37.920 ,2,0,,0,1056.,4.8,164.,4.8,,0,0.,4.8,344.,4.8
1979-07-11 21:11:42.720 ,2,0,,0,1008.,4.8,172.,4.8,,0,0.,4.8,328.,4.8
1979-07-11 21:11:47.520 ,2,0,,0,864.,4.8,148.,4.8,,0,0.,4.8,328.,4.8
1979-07-11 21:11:52.320 ,2,0,,0,0.,4.8,0.,4.8,,0,0.,4.8,328.,4.8
1979-07-11 21:11:57.120 ,2,0,,0,0.,4.8,0.,4.8,,0,0.,4.8,320.,4.8
1979-07-11 21:12:01.920 ,1,0,,0,0.,4.8,0.,4.8,,0,0.,4.8,384.,4.8
1979-07-11 21:12:06.720 ,1,0,,0,0.,4.8,0.,4.8,,0,0.,4.8,312.,4.8
1979-07-11 21:12:11.520 ,1,0,,0,136.,4.8,20.,4.8,,0,0.,4.8,280.,4.8
1979-07-11 21:12:16.320 ,1,0,,0,848.,4.8,120.,4.8,,0,0.,4.8,288.,4.8
1979-07-11 21:12:21.120 ,1,0,,0,896.,4.8,148.,4.8,,0,0.,4.8,264.,4.8
1979-07-11 21:12:25.920 ,1,0,,0,912.,4.8,148.,4.8,,0,0.,4.8,256.,4.8
1979-07-11 21:12:30.720 ,1,0,,0,848.,4.8,132.,4.8,,0,0.,4.8,280.,4.8
1979-07-11 21:12:35.520 ,1,0,,0,720.,4.8,118.,4.8,,0,0.,4.8,256.,4.8
1979-07-11 21:12:40.320 ,1,0,,0,0.,4.8,0.,4.8,,0,0.,4.8,296.,4.8
1979-07-11 21:12:45.120 ,1,0,,0,0.,4.8,0.,4.8,,0,0.,4.8,256.,4.8
1979-07-11 21:12:49.920 ,0,0,,0,0.,4.8,0.,4.8,,0,0.,4.8,264.,4.8
1979-07-11 21:12:54.720 ,0,0,,0,0.,4.8,0.,4.8,,0,0.,4.8,280.,4.8
1979-07-11 21:12:59.520 ,0,0,,0,140.,4.8,26.,4.8,,0,0.,4.8,304.,4.8
1979-07-11 21:13:04.320 ,0,0,,0,976.,4.8,164.,4.8,,0,0.,4.8,264.,4.8
1979-07-11 21:13:09.120 ,0,0,,0,896.,4.8,148.,4.8,,0,0.,4.8,304.,4.8
1979-07-11 21:13:13.920 ,0,0,,0,896.,4.8,148.,4.8,,0,0.,4.8,304.,4.8
1979-07-11 21:13:18.720 ,0,0,,0,928.,4.8,144.,4.8,,0,0.,4.8,304.,4.8
1979-07-11 21:13:23.520 ,0,0,,0,832.,4.8,132.,4.8,,0,0.,4.8,280.,4.8
1979-07-11 21:13:28.320 ,0,0,,0,0.,4.8,0.,4.8,,0,0.,4.8,288.,4.8
1979-07-11 21:13:33.120 ,0,0,,0,0.,4.8,0.,4.8,,0,0.,4.8,272.,4.8
1979-07-11 21:13:37.920 ,0,0,,0,0.,4.8,0.,4.8,,0,0.,4.8,304.,4.8
1979-07-11 21:13:42.720 ,0,0,,0,0.,4.8,0.,4.8,,0,0.,4.8,296.,4.8
1979-07-11 21:13:47.520 ,0,0,,0,128.,4.8,26.,4.8,,0,0.,4.8,248.,4.8
1979-07-11 21:13:52.320 ,0,0,,0,848.,4.8,164.,4.8,,0,0.,4.8,232.,4.8
1979-07-11 21:13:57.120 ,0,0,,0,832.,4.8,140.,4.8,,0,0.,4.8,280.,4.8
1979-07-11 21:14:01.920 ,0,0,,0,816.,4.8,136.,4.8,,0,0.,4.8,280.,4.8
1979-07-11 21:14:06.720 ,0,0,,0,864.,4.8,140.,4.8,,0,0.,4.8,252.,4.8
1979-07-11 21:14:11.520 ,0,0,,0,640.,4.8,106.,4.8,,0,0.,4.8,272.,4.8
1979-07-11 21:14:16.320 ,0,0,,0,0.,4.8,0.,4.8,,0,0.,4.8,256.,4.8
1979-07-11 21:14:21.120 ,0,0,,0,0.,4.8,0.,4.8,,0,0.,4.8,236.,4.8
1979-07-11 21:14:25.920 ,1,0,,0,0.,4.8,0.,4.8,,0,0.,4.8,244.,4.8
1979-07-11 21:14:30.720 ,1,0,,0,0.,4.8,0.,4.8,,0,0.,4.8,264.,4.8
1979-07-11 21:14:35.520 ,1,0,,0,114.,4.8,17.,4.8,,0,0.,4.8,228.,4.8
1979-07-11 21:14:40.320 ,1,0,,0,736.,4.8,108.,4.8,,0,0.,4.8,232.,4.8
1979-07-11 21:14:45.120 ,1,0,,0,784.,4.8,128.,4.8,,0,0.,4.8,196.,4.8
1979-07-11 21:14:49.920 ,1,0,,0,704.,4.8,116.,4.8,,0,0.,4.8,248.,4.8
1979-07-11 21:14:54.720 ,1,0,,0,720.,4.8,144.,4.8,,0,0.,4.8,240.,4.8
1979-07-11 21:14:59.520 ,1,0,,0,576.,4.8,90.,4.8,,0,0.,4.8,208.,4.8
1979-07-11 21:15:04.320 ,1,0,,0,0.,4.8,0.,4.8,,0,0.,4.8,224.,4.8
1979-07-11 21:15:09.120 ,1,0,,0,0.,4.8,0.,4.8,,0,0.,4.8,224.,4.8
1979-07-11 21:15:13.920 ,2,0,,0,0.,4.8,0.,4.8,,0,0.,4.8,220.,4.8
1979-07-11 21:15:18.720 ,2,0,,0,0.,4.8,0.,4.8,,0,0.,4.8,232.,4.8
1979-07-11 21:15:23.520 ,2,0,,0,128.,4.8,23.,4.8,,0,0.,4.8,288.,4.8
1979-07-11 21:15:28.320 ,2,0,,0,848.,4.8,144.,4.8,,0,0.,4.8,280.,4.8
1979-07-11 21:15:33.120 ,2,0,,0,848.,4.8,148.,4.8,,0,0.,4.8,280.,4.8
1979-07-11 21:15:37.920 ,2,0,,0,848.,4.8,160.,4.8,,0,0.,4.8,296.,4.8
1979-07-11 21:15:42.720 ,2,0,,0,848.,4.8,152.,4.8,,0,0.,4.8,288.,4.8
1979-07-11 21:15:47.520 ,2,0,,0,736.,4.8,132.,4.8,,0,0.,4.8,288.,4.8
1979-07-11 21:15:52.320 ,2,0,,0,0.,4.8,0.,4.8,,0,0.,4.8,288.,4.8
1979-07-11 21:15:57.120 ,2,0,,0,0.,4.8,0.,4.8,,0,0.,4.8,288.,4.8
1979-07-11 21:16:01.920 ,3,0,,0,0.,4.8,0.,4.8,,0,0.,4.8,328.,4.8
1979-07-11 21:16:06.720 ,3,0,,0,0.,4.8,0.,4.8,,0,0.,4.8,344.,4.8
1979-07-11 21:16:11.520 ,3,0,,0,196.,4.8,28.,4.8,,0,0.,4.8,464.,4.8
1979-07-11 21:16:16.320 ,3,0,,0,1184.,4.8,188.,4.8,,0,0.,4.8,456.,4.8
1979-07-11 21:16:21.120 ,3,0,,0,1120.,4.8,176.,4.8,,0,0.,4.8,472.,4.8
1979-07-11 21:16:25.920 ,3,0,,0,1184.,4.8,204.,4.8,,0,0.,4.8,416.,4.8
1979-07-11 21:16:30.720 ,3,0,,0,1184.,4.8,208.,4.8,,0,0.,4.8,440.,4.8
1979-07-11 21:16:35.520 ,3,0,,0,1056.,4.8,152.,4.8,,0,0.,4.8,432.,4.8
1979-07-11 21:16:40.320 ,3,0,,0,0.,4.8,0.,4.8,,0,0.,4.8,400.,4.8
1979-07-11 21:16:45.120 ,3,0,,0,0.,4.8,0.,4.8,,0,0.,4.8,464.,4.8
1979-07-11 21:16:49.920 ,4,0,,0,0.,4.8,0.,4.8,,0,0.,4.8,432.,4.8
1979-07-11 21:16:54.720 ,4,0,,0,0.,4.8,0.,4.8,,0,0.,4.8,440.,4.8
1979-07-11 21:16:59.520 ,4,0,,0,228.,4.8,38.,4.8,,0,0.,4.8,512.,4.8
1979-07-11 21:17:04.320 ,4,0,,0,1408.,4.8,228.,4.8,,0,0.,4.8,496.,4.8
1979-07-11 21:17:09.120 ,4,0,,0,1472.,4.8,248.,4.8,,0,0.,4.8,528.,4.8
1979-07-11 21:17:13.920 ,4,0,,0,1408.,4.8,208.,4.8,,0,0.,4.8,512.,4.8
1979-07-11 21:17:18.720 ,4,0,,0,1440.,4.8,232.,4.8,,0,0.,4.8,512.,4.8
1979-07-11 21:17:23.520 ,4,0,,0,1152.,4.8,192.,4.8,,0,0.,4.8,560.,4.8
1979-07-11 21:17:28.320 ,4,0,,0,0.,4.8,0.,4.8,,0,0.,4.8,472.,4.8
1979-07-11 21:17:33.120 ,4,0,,0,0.,4.8,0.,4.8,,0,0.,4.8,464.,4.8
1979-07-11 21:17:37.920 ,5,0,,0,0.,4.8,0.,4.8,,0,0.,4.8,504.,4.8
1979-07-11 21:17:42.720 ,5,0,,0,0.,4.8,0.,4.8,,0,0.,4.8,512.,4.8
1979-07-11 21:17:47.520 ,5,0,,0,256.,4.8,48.,4.8,,0,0.,4.8,528.,4.8
1979-07-11 21:17:52.320 ,5,0,,0,1376.,4.8,240.,4.8,,0,0.,4.8,512.,4.8
1979-07-11 21:17:57.120 ,5,0,,0,1504.,4.8,240.,4.8,,0,0.,4.8,544.,4.8
1979-07-11 21:18:01.920 ,5,0,,0,1440.,4.8,244.,4.8,,0,0.,4.8,528.,4.8
1979-07-11 21:18:06.720 ,5,0,,0,1504.,4.8,256.,4.8,,0,0.,4.8,528.,4.8
1979-07-11 21:18:11.520 ,5,0,,0,1184.,4.8,200.,4.8,,0,0.,4.8,496.,4.8
1979-07-11 21:18:16.320 ,5,0,,0,0.,4.8,0.,4.8,,0,0.,4.8,512.,4.8
1979-07-11 21:18:21.120 ,5,0,,0,0.,4.8,0.,4.8,,0,0.,4.8,512.,4.8
1979-07-11 21:18:25.920 ,6,0,,0,0.,4.8,0.,4.8,,0,0.,4.8,472.,4.8
1979-07-11 21:18:30.720 ,6,0,,0,0.,4.8,0.,4.8,,0,0.,4.8,472.,4.8
1979-07-11 21:18:35.520 ,6,0,,0,208.,4.8,35.,4.8,,0,0.,4.8,384.,4.8
1979-07-11 21:18:40.320 ,6,0,,0,1088.,4.8,164.,4.8,,0,0.,4.8,384.,4.8
1979-07-11 21:18:45.120 ,6,0,,0,1088.,4.8,176.,4.8,,0,0.,4.8,408.,4.8
1979-07-11 21:18:49.920 ,6,0,,0,1056.,4.8,172.,4.8,,0,0.,4.8,424.,4.8
1979-07-11 21:18:54.720 ,6,0,,0,1088.,4.8,180.,4.8,,0,0.,4.8,400.,4.8
1979-07-11 21:18:59.520 ,6,0,,0,960.,4.8,168.,4.8,,0,0.,4.8,400.,4.8
1979-07-11 21:19:04.320 ,6,0,,0,0.,4.8,0.,4.8,,0,0.,4.8,400.,4.8
1979-07-11 21:19:09.120 ,6,0,,0,0.,4.8,0.,4.8,,0,0.,4.8,424.,4.8
1979-07-11 21:19:13.920 ,7,0,,0,0.,4.8,0.,4.8,,0,0.,4.8,392.,4.8
1979-07-11 21:19:18.720 ,7,0,,0,0.,4.8,0.,4.8,,0,0.,4.8,256.,4.8
1979-07-11 21:19:23.520 ,7,0,,0,2.,4.8,0.,4.8,,0,0.,4.8,1.,4.8
1979-07-11 21:19:28.320 ,7,0,,0,12.,4.8,0.,4.8,,0,0.,4.8,0.,4.8
1979-07-11 21:19:33.120 ,7,0,,0,6.,4.8,0.,4.8,,0,0.,4.8,0.,4.8
1979-07-11 21:19:37.920 ,7,0,,0,15.,4.8,0.,4.8,,0,0.,4.8,0.,4.8
1979-07-11 21:19:42.720 ,7,0,,0,12.,4.8,0.,4.8,,0,0.,4.8,0.,4.8
1979-07-11 21:19:47.520 ,7,0,,0,4.,4.8,0.,4.8,,0,0.,4.8,0.,4.8
1979-07-11 21:19:52.320 ,7,0,,0,0.,4.8,0.,4.8,,0,0.,4.8,0.,4.8
1979-07-11 21:19:57.120 ,7,0,,0,0.,4.8,0.,4.8,,0,0.,4.8,0.,4.8
1979-07-11 21:20:01.920 ,7,0,,0,0.,4.8,0.,4.8,,0,0.,4.8,0.,4.8
1979-07-11 21:20:06.720 ,7,0,,0,0.,4.8,0.,4.8,,0,0.,4.8,0.,4.8
1979-07-11 21:20:11.520 ,7,0,,0,2.,4.8,0.,4.8,,0,0.,4.8,0.,4.8
1979-07-11 21:20:16.320 ,7,0,,0,7.,4.8,0.,4.8,,0,0.,4.8,0.,4.8
1979-07-11 21:20:21.120 ,7,0,,0,7.,4.8,0.,4.8,,0,0.,4.8,0.,4.8
1979-07-11 21:20:25.920 ,7,0,,0,19.,4.8,0.,4.8,,0,0.,4.8,0.,4.8
1979-07-11 21:20:30.720 ,7,0,,0,12.,4.8,0.,4.8,,0,0.,4.8,0.,4.8
1979-07-11 21:20:35.520 ,7,0,,0,6.,4.8,0.,4.8,,0,0.,4.8,0.,4.8
1979-07-11 21:20:40.320 ,7,0,,0,0.,4.8,0.,4.8,,0,0.,4.8,0.,4.8
1979-07-11 21:20:45.120 ,7,0,,0,0.,4.8,0.,4.8,,0,0.,4.8,0.,4.8
1979-07-11 21:20:49.920 ,6,0,,0,0.,4.8,0.,4.8,,0,0.,4.8,0.,4.8
1979-07-11 21:20:54.720 ,6,0,,0,0.,4.8,0.,4.8,,0,0.,4.8,132.,4.8
1979-07-11 21:20:59.520 ,6,0,,0,172.,4.8,33.,4.8,,0,0.,4.8,400.,4.8
1979-07-11 21:21:04.320 ,6,0,,0,992.,4.8,172.,4.8,,0,0.,4.8,320.,4.8
1979-07-11 21:21:09.120 ,6,0,,0,976.,4.8,164.,4.8,,0,0.,4.8,368.,4.8
1979-07-11 21:21:13.920 ,6,0,,0,960.,4.8,152.,4.8,,0,0.,4.8,320.,4.8
1979-07-11 21:21:18.720 ,6,0,,0,928.,4.8,148.,4.8,,0,0.,4.8,352.,4.8
1979-07-11 21:21:23.520 ,6,0,,0,768.,4.8,136.,4.8,,0,0.,4.8,336.,4.8
1979-07-11 21:21:28.320 ,6,0,,0,0.,4.8,0.,4.8,,0,0.,4.8,304.,4.8
1979-07-11 21:21:33.120 ,6,0,,0,0.,4.8,0.,4.8,,0,0.,4.8,296.,4.8
1979-07-11 21:21:37.920 ,5,0,,0,0.,4.8,0.,4.8,,0,0.,4.8,328.,4.8
1979-07-11 21:21:42.720 ,5,0,,0,0.,4.8,0.,4.8,,0,0.,4.8,344.,4.8
1979-07-11 21:21:47.520 ,5,0,,0,148.,4.8,22.,4.8,,0,0.,4.8,328.,4.8
1979-07-11 21:21:52.320 ,5,0,,0,864.,4.8,140.,4.8,,0,0.,4.8,328.,4.8
1979-07-11 21:21:57.120 ,5,0,,0,848.,4.8,126.,4.8,,0,0.,4.8,336.,4.8
1979-07-11 21:22:01.920 ,5,0,,0,864.,4.8,144.,4.8,,0,0.,4.8,296.,4.8
1979-07-11 21:22:06.720 ,5,0,,0,912.,4.8,164.,4.8,,0,0.,4.8,320.,4.8
1979-07-11 21:22:11.520 ,5,0,,0,720.,4.8,140.,4.8,,0,0.,4.8,288.,4.8
1979-07-11 21:22:16.320 ,5,0,,0,0.,4.8,0.,4.8,,0,0.,4.8,312.,4.8
1979-07-11 21:22:21.120 ,5,0,,0,0.,4.8,0.,4.8,,0,0.,4.8,320.,4.8
1979-07-11 21:22:25.920 ,4,0,,0,0.,4.8,0.,4.8,,0,0.,4.8,312.,4.8
1979-07-11 21:22:30.720 ,4,0,,0,0.,4.8,0.,4.8,,0,0.,4.8,256.,4.8
1979-07-11 21:22:35.520 ,4,0,,0,148.,4.8,22.,4.8,,0,0.,4.8,288.,4.8
1979-07-11 21:22:40.320 ,4,0,,0,800.,4.8,126.,4.8,,0,0.,4.8,304.,4.8
1979-07-11 21:22:45.120 ,4,0,,0,832.,4.8,104.,4.8,,0,0.,4.8,288.,4.8
1979-07-11 21:22:49.920 ,4,0,,0,784.,4.8,128.,4.8,,0,0.,4.8,280.,4.8
1979-07-11 21:22:54.720 ,4,0,,0,768.,4.8,106.,4.8,,0,0.,4.8,280.,4.8
1979-07-11 21:22:59.520 ,4,0,,0,704.,4.8,106.,4.8,,0,0.,4.8,288.,4.8
1979-07-11 21:23:04.320 ,4,0,,0,0.,4.8,0.,4.8,,0,0.,4.8,304.,4.8
1979-07-11 21:23:09.120 ,4,0,,0,0.,4.8,0.,4.8,,0,0.,4.8,320.,4.8
1979-07-11 21:23:13.920 ,3,0,,0,0.,4.8,0.,4.8,,0,0.,4.8,288.,4.8
1979-07-11 21:23:18.720 ,3,0,,0,0.,4.8,0.,4.8,,0,0.,4.8,264.,4.8
1979-07-11 21:23:23.520 ,3,0,,0,122.,4.8,21.,4.8,,0,0.,4.8,240.,4.8
1979-07-11 21:23:28.320 ,3,0,,0,640.,4.8,90.,4.8,,0,0.,4.8,280.,4.8
1979-07-11 21:23:33.120 ,3,0,,0,640.,4.8,96.,4.8,,0,0.,4.8,216.,4.8
1979-07-11 21:23:37.920 ,3,0,,0,624.,4.8,96.,4.8,,0,0.,4.8,244.,4.8
1979-07-11 21:23:42.720 ,3,0,,0,624.,4.8,78.,4.8,,0,0.,4.8,236.,4.8
1979-07-11 21:23:47.520 ,3,0,,0,544.,4.8,78.,4.8,,0,0.,4.8,220.,4.8
1979-07-11 21:23:52.320 ,3,0,,0,0.,4.8,0.,4.8,,0,0.,4.8,244.,4.8
1979-07-11 21:23:57.120 ,3,0,,0,0.,4.8,0.,4.8,,0,0.,4.8,236.,4.8
1979-07-11 21:24:01.920 ,2,0,,0,0.,4.8,0.,4.8,,0,0.,4.8,220.,4.8
1979-07-11 21:24:06.720 ,2,0,,0,0.,4.8,0.,4.8,,0,0.,4.8,212.,4.8
1979-07-11 21:24:11.520 ,2,0,,0,64.,4.8,6.,4.8,,0,0.,4.8,180.,4.8
1979-07-11 21:24:16.320 ,2,0,,0,528.,4.8,82.,4.8,,0,0.,4.8,164.,4.8
1979-07-11 21:24:21.120 ,2,0,,0,496.,4.8,78.,4.8,,0,0.,4.8,180.,4.8
1979-07-11 21:24:25.920 ,2,0,,0,544.,4.8,84.,4.8,,0,0.,4.8,168.,4.8
1979-07-11 21:24:30.720 ,2,0,,0,512.,4.8,78.,4.8,,0,0.,4.8,176.,4.8
1979-07-11 21:24:35.520 ,2,0,,0,376.,4.8,57.,4.8,,0,0.,4.8,200.,4.8
1979-07-11 21:24:40.320 ,2,0,,0,0.,4.8,0.,4.8,,0,0.,4.8,184.,4.8
1979-07-11 21:24:45.120 ,2,0,,0,0.,4.8,0.,4.8,,0,0.,4.8,168.,4.8
1979-07-11 21:24:49.920 ,1,0,,0,0.,4.8,0.,4.8,,0,0.,4.8,156.,4.8
1979-07-11 21:24:54.720 ,1,0,,0,0.,4.8,0.,4.8,,0,0.,4.8,156.,4.8
1979-07-11 21:24:59.520 ,1,0,,0,72.,4.8,11.,4.8,,0,0.,4.8,156.,4.8
1979-07-11 21:25:04.320 ,1,0,,0,456.,4.8,70.,4.8,,0,0.,4.8,144.,4.8
1979-07-11 21:25:09.120 ,1,0,,0,416.,4.8,55.,4.8,,0,0.,4.8,132.,4.8
1979-07-11 21:25:13.920 ,1,0,,0,392.,4.8,68.,4.8,,0,0.,4.8,148.,4.8
1979-07-11 21:25:18.720 ,1,0,,0,432.,4.8,64.,4.8,,0,0.,4.8,136.,4.8
1979-07-11 21:25:23.520 ,1,0,,0,368.,4.8,55.,4.8,,0,0.,4.8,110.,4.8
1979-07-11 21:25:28.320 ,1,0,,0,0.,4.8,0.,4.8,,0,0.,4.8,160.,4.8
1979-07-11 21:25:33.120 ,1,0,,0,0.,4.8,0.,4.8,,0,0.,4.8,116.,4.8
1979-07-11 21:25:37.920 ,0,0,,0,0.,4.8,0.,4.8,,0,0.,4.8,136.,4.8
1979-07-11 21:25:42.720 ,0,0,,0,0.,4.8,0.,4.8,,0,0.,4.8,156.,4.8
1979-07-11 21:25:47.520 ,0,0,,0,58.,4.8,10.,4.8,,0,0.,4.8,144.,4.8
1979-07-11 21:25:52.320 ,0,0,,0,392.,4.8,59.,4.8,,0,0.,4.8,132.,4.8
1979-07-11 21:25:57.120 ,0,0,,0,376.,4.8,62.,4.8,,0,0.,4.8,124.,4.8
1979-07-11 21:26:01.920 ,0,0,,0,416.,4.8,66.,4.8,,0,0.,4.8,144.,4.8
1979-07-11 21:26:06.720 ,0,0,,0,424.,4.8,56.,4.8,,0,0.,4.8,148.,4.8
1979-07-11 21:26:11.520 ,0,0,,0,328.,4.8,50.,4.8,,0,0.,4.8,144.,4.8
1979-07-11 21:26:16.320 ,0,0,,0,0.,4.8,0.,4.8,,0,0.,4.8,132.,4.8
1979-07-11 21:26:21.120 ,0,0,,0,0.,4.8,0.,4.8,,0,0.,4.8,124.,4.8
1979-07-11 21:26:25.920 ,0,0,,0,0.,4.8,0.,4.8,,0,0.,4.8,136.,4.8
1979-07-11 21:26:30.720 ,0,0,,0,0.,4.8,0.,4.8,,0,0.,4.8,140.,4.8
1979-07-11 21:26:35.520 ,0,0,,0,62.,4.8,10.,4.8,,0,0.,4.8,132.,4.8
1979-07-11 21:26:40.320 ,0,0,,0,384.,4.8,53.,4.8,,0,0.,4.8,152.,4.8
1979-07-11 21:26:45.120 ,0,0,,0,424.,4.8,54.,4.8,,0,0.,4.8,168.,4.8
1979-07-11 21:26:49.920 ,0,0,,0,400.,4.8,63.,4.8,,0,0.,4.8,132.,4.8
1979-07-11 21:26:54.720 ,0,0,,0,416.,4.8,56.,4.8,,0,0.,4.8,156.,4.8
1979-07-11 21:26:59.520 ,0,0,,0,368.,4.8,54.,4.8,,0,0.,4.8,136.,4.8
1979-07-11 21:27:04.320 ,0,0,,0,0.,4.8,0.,4.8,,0,0.,4.8,122.,4.8
1979-07-11 21:27:09.120 ,0,0,,0,0.,4.8,0.,4.8,,0,0.,4.8,156.,4.8
1979-07-11 21:27:13.920 ,1,0,,0,0.,4.8,0.,4.8,,0,0.,4.8,132.,4.8
1979-07-11 21:27:18.720 ,1,0,,0,0.,4.8,0.,4.8,,0,0.,4.8,148.,4.8
1979-07-11 21:27:23.520 ,1,0,,0,84.,4.8,12.,4.8,,0,0.,4.8,156.,4.8
1979-07-11 21:27:28.320 ,1,0,,0,424.,4.8,66.,4.8,,0,0.,4.8,128.,4.8
1979-07-11 21:27:33.120 ,1,0,,0,440.,4.8,59.,4.8,,0,0.,4.8,140.,4.8
1979-07-11 21:27:37.920 ,1,0,,0,448.,4.8,74.,4.8,,0,0.,4.8,128.,4.8
1979-07-11 21:27:42.720 ,1,0,,0,456.,4.8,66.,4.8,,0,0.,4.8,128.,4.8
1979-07-11 21:27:47.520 ,1,0,,0,336.,4.8,55.,4.8,,0,0.,4.8,148.,4.8
1979-07-11 21:27:52.320 ,1,0,,0,0.,4.8,0.,4.8,,0,0.,4.8,156.,4.8
1979-07-11 21:27:57.120 ,1,0,,0,0.,4.8,0.,4.8,,0,0.,4.8,136.,4.8
1979-07-11 21:28:01.920 ,2,0,,0,0.,4.8,0.,4.8,,0,0.,4.8,118.,4.8
1979-07-11 21:28:06.720 ,2,0,,0,0.,4.8,0.,4.8,,0,0.,4.8,148.,4.8
1979-07-11 21:28:11.520 ,2,0,,0,106.,4.8,15.,4.8,,0,0.,4.8,160.,4.8
1979-07-11 21:28:16.320 ,2,0,,0,488.,4.8,72.,4.8,,0,0.,4.8,180.,4.8
1979-07-11 21:28:21.120 ,2,0,,0,496.,4.8,80.,4.8,,0,0.,4.8,192.,4.8
1979-07-11 21:28:25.920 ,2,0,,0,512.,4.8,92.,4.8,,0,0.,4.8,180.,4.8